Le nostre stazioni meteo in Italia

Pubblicità
Il mio iltempo24.it
Modena, Italia (16128): Temperatura & dewpoint: 02.04.2020 01:00:00 - 08.04.2020 01:00:00 (CEST)Modena, Italia (16128): velocità del vento: 02.04.2020 01:00:00 - 08.04.2020 01:00:00 (CEST)Modena, Italia (16128): direzione del vento: 02.04.2020 01:00:00 - 08.04.2020 01:00:00 (CEST)Modena, Italia (16128): reduced air pressure: 02.04.2020 01:00:00 - 08.04.2020 01:00:00 (CEST)Modena, Italia (16128): precipitazioni: 02.04.2020 01:00:00 - 08.04.2020 01:00:00 (CEST)
Data & Tempo tt [°C] td [°C] ff [km/h] ff [kn] dd ppp [hPa] rr [mm]
08.04.2020 01:00:00 - - - - - - -
08.04.2020 00:00:00 - - - - - - -
07.04.2020 23:00:00 14,3 -5,5 6 4 S 1029,2 0,0
07.04.2020 22:00:00 15,5 -6,1 10 5 SE 1029,0 0,0
07.04.2020 21:00:00 16,3 -6,7 12 6 ESE 1028,7 0,0
07.04.2020 20:00:00 17,7 -6,9 15 8 E 1027,9 0,0
07.04.2020 19:00:00 19,5 -7,0 16 9 E 1027,7 0,0
07.04.2020 18:00:00 20,6 -8,8 10 5 ENE 1027,5 0,0
07.04.2020 17:00:00 20,8 -6,8 6 3 NE 1027,8 0,0
07.04.2020 16:00:00 20,1 -4,3 10 5 NE 1028,1 0,0
07.04.2020 15:00:00 20,4 -2,7 13 7 ENE 1028,5 0,0
07.04.2020 14:00:00 19,1 -3,7 10 5 ESE 1029,2 0,0
07.04.2020 13:00:00 18,4 -0,4 9 5 E 1029,6 0,0
07.04.2020 12:00:00 17,2 1,6 5 3 NNO 1030,1 0,0
07.04.2020 11:00:00 15,1 1,6 4 2 NO 1030,1 0,0
07.04.2020 10:00:00 12,8 0,5 8 5 NO 1029,9 0,0
07.04.2020 09:00:00 10,5 0,8 4 2 ONO 1029,7 0,0
07.04.2020 08:00:00 8,7 0,2 5 3 ONO 1029,4 0,0
07.04.2020 07:00:00 7,8 0,0 4 2 ONO 1029,1 0,0
07.04.2020 06:00:00 8,3 0,0 6 3 ONO 1028,7 0,0
07.04.2020 05:00:00 8,3 0,5 12 6 O 1028,6 0,0
07.04.2020 04:00:00 9,6 0,5 7 4 ONO 1028,8 0,0
07.04.2020 03:00:00 9,8 0,7 6 3 ONO 1028,7 0,0
07.04.2020 02:00:00 10,8 0,5 8 5 NO 1028,5 0,0
07.04.2020 01:00:00 11,1 1,1 8 5 ONO 1028,2 0,0
07.04.2020 00:00:00 12,5 0,9 9 5 ONO 1027,9 0,0
06.04.2020 23:00:00 14,1 0,7 8 4 ONO 1027,8 0,0
06.04.2020 22:00:00 16,5 -1,1 0 0 ENE - -
06.04.2020 21:00:00 18,1 -1,7 0 0 NE 1026,8 0,0
06.04.2020 20:00:00 19,0 - 1 0 E 1026,0 0,0
06.04.2020 19:00:00 19,7 -2,6 9 5 ENE 1025,6 0,0
06.04.2020 18:00:00 20,2 -2,2 1 1 E 1025,6 0,0
06.04.2020 17:00:00 20,2 -2,2 8 4 NE 1025,8 0,0
06.04.2020 16:00:00 19,9 -1,3 14 7 NE 1026,1 0,0
06.04.2020 15:00:00 19,7 -1,4 6 3 ENE 1026,5 0,0
06.04.2020 14:00:00 19,4 -0,6 8 4 N 1027,0 0,0
06.04.2020 13:00:00 18,7 -1,2 6 4 NNE 1027,3 0,0
06.04.2020 12:00:00 16,6 0,3 0 0 N 1027,7 0,0
06.04.2020 11:00:00 15,2 -0,6 1 1 NNO 1027,9 0,0
06.04.2020 10:00:00 12,5 0,6 6 4 ONO 1027,8 0,0
06.04.2020 09:00:00 9,9 -0,9 9 5 O 1027,5 0,0
06.04.2020 08:00:00 8,1 -2,0 9 5 ONO 1027,1 0,0
06.04.2020 07:00:00 7,0 -1,7 8 5 ONO 1026,8 0,0
06.04.2020 06:00:00 7,7 -1,8 9 5 ONO 1026,2 0,0
06.04.2020 05:00:00 8,4 -1,7 7 4 ONO 1026,0 0,0
06.04.2020 04:00:00 7,9 -1,1 10 5 O 1025,9 0,0
06.04.2020 03:00:00 7,5 -1,0 13 7 O 1025,9 0,0
06.04.2020 02:00:00 9,3 -1,4 14 7 O 1025,8 0,0
06.04.2020 01:00:00 10,5 -1,6 9 5 ONO 1025,9 0,0
06.04.2020 00:00:00 10,3 -1,1 7 4 O 1025,4 0,0
05.04.2020 23:00:00 11,5 -1,6 9 5 ONO 1024,8 0,0
05.04.2020 22:00:00 13,8 -2,2 6 4 ONO 1024,4 0,0
05.04.2020 21:00:00 16,1 -3,4 6 3 NO 1023,9 0,0
05.04.2020 20:00:00 16,7 -4,0 3 2 ESE 1023,4 0,0
05.04.2020 19:00:00 17,5 -4,5 12 6 ESE 1022,9 0,0
05.04.2020 18:00:00 17,7 -4,9 15 8 E 1023,0 0,0
05.04.2020 17:00:00 17,8 -5,5 19 11 E 1023,1 0,0
05.04.2020 16:00:00 17,2 -4,7 20 11 ENE 1023,7 0,0
05.04.2020 15:00:00 17,2 -4,7 16 8 ENE 1024,3 0,0
05.04.2020 14:00:00 16,8 -4,5 22 12 ENE 1024,7 0,0
05.04.2020 13:00:00 16,3 -4,3 23 12 ENE 1025,2 0,0
05.04.2020 12:00:00 15,6 -1,5 5 3 NE 1025,9 0,0
05.04.2020 11:00:00 13,7 -1,1 9 5 ENE 1026,4 0,0
05.04.2020 10:00:00 11,8 -0,4 - - - 1026,6 0,0
05.04.2020 09:00:00 8,1 -0,2 5 3 ONO 1026,5 0,0
05.04.2020 08:00:00 6,8 -1,4 5 3 ONO 1026,0 0,0
05.04.2020 07:00:00 6,8 -1,6 11 6 NO 1025,4 0,0
05.04.2020 06:00:00 7,1 -1,6 11 6 NO 1024,9 0,0
05.04.2020 05:00:00 7,2 -1,2 9 5 ONO 1024,8 0,0
05.04.2020 04:00:00 8,3 -1,2 10 5 ONO 1024,8 0,0
05.04.2020 03:00:00 8,5 -0,8 6 3 ONO 1024,9 0,0
05.04.2020 02:00:00 9,2 -0,7 5 3 O 1024,9 0,0
05.04.2020 01:00:00 10,1 -1,0 6 3 ONO 1024,5 0,0
05.04.2020 00:00:00 11,9 -1,3 3 2 NO 1024,1 0,0
04.04.2020 23:00:00 12,9 -1,8 4 2 SSO 1023,5 0,0
04.04.2020 22:00:00 15,3 - - - - - 0,0
04.04.2020 21:00:00 15,9 -3,1 8 5 ESE 1022,1 0,0
04.04.2020 20:00:00 16,5 -3,1 9 5 ESE 1021,3 0,0
04.04.2020 19:00:00 17,1 -3,6 9 5 ESE 1020,8 0,0
04.04.2020 18:00:00 17,5 -3,3 11 6 E 1020,5 0,0
04.04.2020 17:00:00 17,4 -2,3 13 7 ESE 1020,6 0,0
04.04.2020 16:00:00 17,7 -2,1 7 4 E 1021,0 0,0
04.04.2020 15:00:00 17,0 -2,7 15 8 E 1021,4 0,0
04.04.2020 14:00:00 16,7 -2,4 13 7 ESE 1021,7 0,0
04.04.2020 13:00:00 16,6 -2,5 10 5 E 1022,2 0,0
04.04.2020 12:00:00 14,5 0,0 5 3 NO 1022,6 0,0
04.04.2020 11:00:00 12,7 -0,2 2 1 NNO 1022,7 0,0
04.04.2020 10:00:00 10,5 -1,2 7 4 ONO 1022,2 0,0
04.04.2020 09:00:00 6,9 -2,3 8 5 O 1021,7 0,0
04.04.2020 08:00:00 5,8 -1,6 2 1 SSE 1021,4 0,0
04.04.2020 07:00:00 5,2 -2,4 2 1 O 1020,4 0,0
04.04.2020 06:00:00 6,0 -3,1 6 4 ONO 1019,8 0,0
04.04.2020 05:00:00 7,1 -3,2 12 7 NO 1019,4 0,0
04.04.2020 04:00:00 6,7 -2,5 13 7 NO 1019,1 0,0
04.04.2020 03:00:00 7,1 -2,1 11 6 NO 1019,0 0,0
04.04.2020 02:00:00 7,2 -1,5 9 5 NO 1018,9 0,0
04.04.2020 01:00:00 7,6 -1,4 10 5 O 1018,4 0,0
04.04.2020 00:00:00 8,7 -1,1 6 4 NO 1017,7 0,0
03.04.2020 23:00:00 10,7 -1,1 5 3 ONO 1017,1 0,0
03.04.2020 22:00:00 12,8 -2,7 - - - 1016,5 0,0
03.04.2020 21:00:00 13,4 -2,6 - - - 1016,0 0,0
03.04.2020 20:00:00 14,1 -2,8 7 4 E 1015,3 0,0
03.04.2020 19:00:00 14,8 -3,1 8 4 E 1014,9 0,0
03.04.2020 18:00:00 15,0 -3,9 9 5 ENE 1014,5 0,0
03.04.2020 17:00:00 15,3 -4,1 8 5 NE 1014,3 0,0
03.04.2020 16:00:00 15,0 -4,4 5 3 ENE 1014,7 0,0
03.04.2020 15:00:00 15,2 -3,7 5 3 NE 1014,8 0,0
03.04.2020 14:00:00 14,1 -4,1 14 7 E 1015,4 0,0
03.04.2020 13:00:00 13,1 -3,7 9 5 E 1015,6 0,0
03.04.2020 12:00:00 12,4 -3,0 6 3 E 1015,8 0,0
03.04.2020 11:00:00 11,0 -2,1 3 2 E 1015,8 0,0
03.04.2020 10:00:00 9,1 -1,9 1 0 NNE 1015,5 0,0
03.04.2020 09:00:00 6,4 - - - - - -
03.04.2020 08:00:00 4,0 -2,8 2 1 O 1014,7 0,0
03.04.2020 07:00:00 4,1 -3,0 - - - 1014,0 0,0
03.04.2020 06:00:00 4,7 -3,1 8 4 S 1013,7 0,0
03.04.2020 05:00:00 4,8 -3,0 8 4 SO 1013,5 0,0
03.04.2020 04:00:00 4,8 -2,8 12 7 NO 1013,4 0,0
03.04.2020 03:00:00 4,9 -2,4 7 4 NO 1013,5 0,0
03.04.2020 02:00:00 5,7 -2,2 4 2 ONO 1013,6 0,0
03.04.2020 01:00:00 7,0 -2,7 6 3 NO 1013,5 0,0
03.04.2020 00:00:00 7,7 -2,6 5 3 ONO 1013,6 0,0
02.04.2020 23:00:00 9,4 -3,5 3 2 SE 1013,5 0,0
02.04.2020 22:00:00 10,6 -4,6 - - - - -
02.04.2020 21:00:00 11,2 -4,9 7 4 E 1013,0 0,0
02.04.2020 20:00:00 11,9 -4,7 7 4 E 1012,6 0,0
02.04.2020 19:00:00 12,5 -5,1 10 5 ENE 1012,7 0,0
02.04.2020 18:00:00 12,9 -5,7 9 5 ENE 1012,8 0,0
02.04.2020 17:00:00 13,2 -5,9 9 5 E 1013,2 0,0
02.04.2020 16:00:00 13,4 -6,2 1 1 ENE 1013,8 0,0
02.04.2020 15:00:00 12,3 -7,2 10 6 E 1014,5 0,0
02.04.2020 14:00:00 11,5 -7,9 9 5 E 1015,5 0,0
02.04.2020 13:00:00 10,7 -7,6 4 2 E 1016,3 0,0
02.04.2020 12:00:00 10,1 -7,6 8 5 E 1016,9 0,0
02.04.2020 11:00:00 8,8 -6,6 3 1 SSO 1017,2 0,0
02.04.2020 10:00:00 6,2 -4,6 - - - 1017,4 0,0
02.04.2020 09:00:00 4,8 -4,7 - - - 1017,4 0,0
02.04.2020 08:00:00 1,4 -5,1 5 3 O 1017,5 0,0
02.04.2020 07:00:00 1,1 -5,2 7 4 ONO 1017,4 0,0
02.04.2020 06:00:00 1,2 -5,1 8 5 NO 1017,3 0,0
02.04.2020 05:00:00 1,9 -5,3 5 3 ONO 1017,7 0,0
02.04.2020 04:00:00 2,6 -5,3 5 3 NO 1018,0 0,0
02.04.2020 03:00:00 3,5 -5,4 8 4 OSO 1018,5 0,0
02.04.2020 02:00:00 3,3 -5,4 10 6 NO 1019,1 0,0
02.04.2020 01:00:00 4,2 -5,0 11 6 NO 1019,5 0,0

tt = Temperatura
td = dewpoint
ff = velocità del vento
dd = direzione del vento
ppp = reduced air pressure
rr = precipitazioni

Stazioni seguenti

WeatherPro
AMSI
MeteoEarth